sat.trackr.live / text

‹ back to catalog

STARLINK-34274

NORAD 64348 · 2025-126E

PAYLOAD ACTIVE UNKNOWN

§ Identity

Operator
Country
US
Launch date
2025-06-13
Launch site
AFWTR
Launch vehicle
Mass (kg)
RCS (m²)

Purposes: comms

External: N2YO · Heavens-Above · Gunter

§ Orbital elements

Epoch: 2026-09-20T22:34:43.490496Z

Period
94.14 min
Inclination
70.0002°
Eccentricity
0.0002686
Mean motion
15.29590723 rev/d
Perigee alt
475.2 km
Apogee alt
478.9 km
Semi-major
6,855.2 km
B*
3.7593e-4
RAAN
259.9700°
Arg perigee
260.1283°
Mean anomaly
99.9589°
Rev number
6,998

§ Raw data

STARLINK-342741 64348U 25126E   26263.94078114  .00010697  00000+0  37593-3 0  99962 64348  70.0002 259.9700 0002686 260.1283  99.9589 15.29590723 69986

JSON: /api/v1/satellites/64348 · /tle

For live sub-satellite position, see the globe view (requires WebGL).

§ Visibility from observer

Set your observer location to see the next 7 days of passes ≥ 10°. The values pass through the URL so the page stays shareable.

No JS? Fill the form by hand. The geolocation button needs JavaScript.